Location: Acheville
(50.3840°N, 2.8827°E)
Time: 09:00:48
(UTC+00:00)

NOSS 3-1 (A) - Pass Details

Date: 24 October 2021
Orbit: 721 x 1491 km, 63.4° (Epoch: 22 November)

Event Time Altitude Azimuth Distance (km) Brightness Sun altitude
Rises 17:48:29 0° 189° (S) 3,189 6.4 -11.7°
Reaches altitude 10° 17:50:55 10° 179° (S) 2,325 5.5 -12.1°
Maximum altitude 17:55:38 34° 116° (ESE) 1,384 3.9 -12.9°
Enters shadow 17:59:58 15° 60° (ENE) 2,324 5.0 -13.6°
